Location: Shepherdstown, WV
(39.4326°N, 77.8042°W)
Time: 20:23:05
(UTC-04:00)

Vanguard 1 Rocket - Pass Details

Date: 10 August 2021
Orbit: 650 x 4226 km, 34.3° (Epoch: 19 September)

Event Time Altitude Azimuth Distance (km) Brightness Sun altitude
Rises 06:01:17 0° 204° (SSW) 7,749 11.7 -4.1°
Reaches altitude 10° 06:07:07 10° 196° (SSW) 7,054 11.6 -3.1°
Maximum altitude 06:28:25 36° 140° (SE) 5,483 11.6 0.8°
Drops below altitude 10° 06:47:24 10° 84° (E) 6,427 13.9 4.3°
Sets 06:52:13 0° 77° (ENE) 7,037 14.9 5.2°
